[[{"header":{"parameterUnit":"m.s-1","parameterCategory":1,"la1":30.2991,"la2":30.254,"lo1":-89.0895,"lo2":-89.0444,"dy":0.0017,"dx":0.0017,"nx":28,"ny":28,"refTime":"2026-02-26T03:00:00:Z","depth":0,"parameterNumber":2,"parameterNumberName":"U-component_of_WINDS"},"data":[0,0,0,0,0,0,0,0,0,0,0,0,0,0,0,0,0,0,0,0,0,0,0,0,0,0,0,0,0,0,0,0,0,0,0,0,0,0,0,0,0,0,0,0,0,0,0,0,0,0,0,0,0,0,0,0,0,0,-2.4524,-2.4525,0,-2.4604,-2.4605,-2.4606,-2.4594,-2.4593,-2.4592,-2.459,-2.4675,-2.4679,-2.4682,0,0,0,0,0,0,0,0,0,0,0,0,0,-2.4365,-2.4368,-2.4524,-2.4525,-2.4526,-2.4604,-2.4605,-2.4606,-2.4594,-2.4593,-2.4591,-2.459,-2.4674,-2.4678,-2.4683,0,0,0,0,0,0,0,0,0,0,0,0,0,-2.4439,-2.4369,-2.4524,-2.453,-2.4531,-2.4604,-2.4605,-2.4606,-2.4595,-2.4593,-2.4591,-2.4589,-2.4673,-2.4678,-2.4683,-2.4756,0,0,-2.4699,-2.4702,0,0,0,0,0,0,0,0,-2.4435,-2.4445,-2.4528,-2.4529,-2.4531,-2.4587,-2.458,-2.4657,-2.4595,-2.4571,-2.459,-2.4588,-2.4648,-2.4655,-2.4675,-2.476,-2.4764,-2.47,-2.4703,-2.4705,-2.4707,0,0,0,0,0,0,0,-2.443,-2.4441,-2.4556,-2.4529,-2.4531,-2.4529,-2.4538,-2.4595,-2.462,-2.4573,-2.4572,-2.4581,-2.4648,-2.4669,-2.4676,-2.4765,-2.47,-2.4704,-2.4708,-2.471,-2.4915,-2.4918,0,0,0,0,0,0,-2.4422,-2.4437,-2.4553,-2.4558,-2.4477,-2.4534,-2.4543,-2.4571,-2.4619,-2.4624,-2.4583,-2.4581,-2.4661,-2.467,-2.4679,-2.4768,-2.4705,-2.471,-2.4713,-2.4913,-2.4916,-2.4918,0,0,0,0,0,0,-2.4419,-2.4433,-2.455,-2.4497,-2.4512,-2.4539,-2.457,-2.4574,-2.4595,-2.4627,-2.4632,-2.46,-2.466,-2.4672,-2.4737,-2.4771,-2.4713,-2.4717,-2.491,-2.4914,-2.4917,-2.4946,0,0,0,0,0,0,-2.4415,-2.4432,-2.4459,-2.4498,-2.4515,-2.4605,-2.4572,-2.4577,-2.4604,-2.4601,-2.4644,-2.4649,-2.466,-2.4729,-2.4742,-2.4777,-2.4721,-2.4908,-2.4912,-2.4916,-2.4942,-2.495,-2.4957,0,0,0,0,0,-2.4409,-2.4464,-2.446,-2.4474,-2.4549,-2.4607,-2.4617,-2.4627,-2.4606,-2.4634,-2.4655,-2.4648,-2.4765,-2.4736,-2.4751,-2.4788,-2.4905,-2.4911,-2.4916,-2.4939,-2.4949,-2.4957,0,0,0,0,0,0,-2.4429,-2.447,-2.4465,-2.4535,-2.4568,-2.4605,-2.4641,-2.4637,-2.4677,-2.4673,-2.4685,-2.4695,-2.4761,-2.4781,-2.4747,-2.4861,-2.4833,-2.4841,-2.4845,-2.4855,-2.4862,-2.4856,-2.4726,0,0,0,0,0,-2.4442,-2.4485,-2.4518,-2.4576,-2.4593,-2.4614,-2.464,-2.4644,-2.4679,-2.4693,-2.4719,-2.4754,-2.4799,-2.4828,-2.4871,-2.4946,-2.4955,-2.4978,-2.4986,-2.4991,-2.4999,-2.504,-2.5051,-2.4935,-2.4935,-2.4935,0,0,-2.4468,-2.4496,-2.4522,-2.4581,-2.4607,-2.4652,-2.4626,-2.4674,-2.4708,-2.4701,-2.4764,-2.4784,-2.4824,-2.4894,-2.4926,-2.4913,-2.5033,-2.4998,-2.5002,-2.5006,-2.5047,-2.5058,-2.5067,-2.4939,-2.4938,-2.4938,0,0,-2.4539,-2.4564,-2.4615,-2.4642,-2.4681,-2.4695,-2.4707,-2.4746,-2.4758,-2.4821,-2.4817,-2.4858,-2.4935,-2.4964,-2.4989,-2.5071,-2.5066,-2.5085,-2.5124,-2.5164,-2.5173,-2.5181,-2.5211,-2.5222,-2.5092,-2.5092,-2.5092,0,-2.4567,-2.4634,-2.4643,-2.4692,-2.4718,-2.4713,-2.4766,-2.4792,-2.4843,-2.4862,-2.4846,-2.4943,-2.497,-2.5047,-2.5067,-2.5087,-2.5102,-2.508,-2.5171,-2.5179,-2.5187,-2.5216,-2.5227,-2.5094,-2.5094,-2.5094,-2.5094,0,-2.4667,-2.4713,-2.475,-2.4799,-2.483,-2.4881,-2.4898,-2.4929,-2.4931,-2.4947,-2.5012,-2.5044,-2.5093,-2.5112,-2.5115,-2.519,-2.5181,-2.5168,-2.5139,-2.52,-2.5227,-2.5238,-2.5097,-2.5097,-2.5096,-2.5096,0,0,-2.4752,-2.4806,-2.4819,-2.4841,-2.4885,-2.4921,-2.4973,-2.502,-2.5046,-2.5082,-2.5126,-2.5192,-2.518,-2.5208,-2.5215,-2.525,-2.5315,-2.5233,-2.5235,-2.5247,-2.54,-2.5409,-2.5421,-2.5312,-2.5314,-2.5315,-2.5396,0,-2.4827,-2.4916,-2.4926,-2.5006,-2.5049,-2.5046,-2.509,-2.5122,-2.5139,-2.5179,-2.5198,-2.5244,-2.5226,-2.5243,-2.5278,-2.5299,-2.5345,-2.5294,-2.5354,-2.5355,-2.5343,-2.5436,-2.5445,-2.552,-2.5407,-2.5409,-2.541,0,-2.4926,-2.4965,-2.5048,-2.5086,-2.5105,-2.5145,-2.5189,-2.5228,-2.5265,-2.5274,-2.5306,-2.5308,-2.5362,-2.5332,-2.5407,-2.5372,-2.5397,-2.5412,-2.5415,-2.5421,-2.5386,-2.5444,-2.5544,-2.5555,-2.5427,-2.5426,-2.5424,0,-2.498,-2.5053,-2.5113,-2.5132,-2.5177,-2.5206,-2.5226,-2.5261,-2.5289,-2.5329,-2.5347,-2.5393,-2.5419,-2.5455,-2.547,-2.5446,-2.5545,-2.5516,-2.5555,-2.5555,-2.5576,-2.5575,-2.5682,-2.5593,-2.5592,-2.5592,-2.5592,0,-2.5063,-2.5115,-2.5137,-2.5174,-2.5232,-2.5244,-2.5301,-2.5321,-2.5352,-2.5393,-2.5394,-2.5433,-2.5451,-2.5493,-2.5505,-2.5566,-2.5578,-2.5588,-2.5591,-2.5588,-2.5587,-2.5605,-2.56,-2.5595,-2.5595,-2.5594,-2.5593,0,-2.5133,-2.515,-2.5215,-2.5253,-2.5264,-2.5305,-2.5338,-2.5374,-2.539,-2.5443,-2.5456,-2.5482,-2.5532,-2.5551,-2.5612,-2.562,-2.5691,-2.569,-2.5678,-2.5679,-2.5718,-2.5714,-2.584,-2.5857,-2.5757,-2.5758,-2.5758,0,-2.5184,-2.5224,-2.5266,-2.5293,-2.5314,-2.5358,-2.5387,-2.54,-2.543,-2.5476,-2.5507,-2.5556,-2.5596,-2.5677,-2.5702,-2.5749,-2.5749,-2.579,-2.5756,-2.5752,-2.575,-2.5747,-2.5752,-2.5796,-2.5797,-2.5798,-2.5799,0,-2.5274,-2.5281,-2.5321,-2.5365,-2.5399,-2.5435,-2.5469,-2.5492,-2.5511,-2.5545,-2.5595,-2.5626,-2.5689,-2.5738,-2.5787,-2.5809,-2.5808,-2.5809,-2.5821,-2.5818,-2.581,-2.5815,-2.5695,-2.5806,-2.5805,-2.5805,-2.5804,-2.5804,-2.5336,-2.5371,-2.5406,-2.5452,-2.5479,-2.5512,-2.5548,-2.5568,-2.561,-2.5661,-2.5667,-2.5721,-2.5759,-2.5823,-2.5848,-2.5892,-2.5881,-2.5898,-2.5902,-2.5906,-2.5909,-2.5803,-2.5901,-2.5901,-2.5901,-2.5901,-2.59,0,-2.5426,-2.5448,-2.549,-2.5538,-2.5574,-2.5569,-2.5607,-2.5638,-2.5685,-2.572,-2.5759,-2.5818,-2.5866,-2.5895,-2.5944,-2.5974,-2.5974,-2.5986,-2.5984,-2.5989,-2.5916,-2.5901,-2.5985,-2.5985,-2.5985,-2.5985,-2.5985,-2.5985,-2.5477,-2.5536,-2.5547,-2.562,-2.5643,-2.5695,-2.5717,-2.5748,-2.5775,-2.584,-2.588,-2.5898,-2.5931,-2.5982,-2.6027,-2.6034,-2.6053,-2.6065,-2.6072,-2.6003,-2.5994,-2.5986,-2.5972,-2.6069,-2.6069,-2.6142,-2.6142,-2.6143]},{"header":{"parameterUnit":"m.s-1","parameterCategory":1,"la1":30.2991,"la2":30.254,"lo1":-89.0895,"lo2":-89.0444,"dy":0.0017,"dx":0.0017,"nx":28,"ny":28,"refTime":"2026-02-26T03:00:00:Z","depth":0,"parameterNumber":3,"parameterNumberName":"V-component_of_WINDS"},"data":[0,0,0,0,0,0,0,0,0,0,0,0,0,0,0,0,0,0,0,0,0,0,0,0,0,0,0,0,0,0,0,0,0,0,0,0,0,0,0,0,0,0,0,0,0,0,0,0,0,0,0,0,0,0,0,0,0,0,0.1605,0.1604,0,0.1593,0.1593,0.1593,0.1625,0.1626,0.1627,0.1628,0.1611,0.161,0.1609,0,0,0,0,0,0,0,0,0,0,0,0,0,0.1652,0.1651,0.1605,0.1604,0.1604,0.1593,0.1593,0.1593,0.1625,0.1626,0.1627,0.1628,0.1612,0.161,0.1609,0,0,0,0,0,0,0,0,0,0,0,0,0,0.1635,0.1651,0.1605,0.1619,0.162,0.1593,0.1593,0.1592,0.1624,0.1626,0.1628,0.1629,0.1612,0.161,0.1608,0.1565,0,0,0.1602,0.1601,0,0,0,0,0,0,0,0,0.1636,0.1633,0.1617,0.1618,0.1619,0.1612,0.1603,0.1583,0.1624,0.1623,0.1628,0.163,0.161,0.1608,0.1603,0.1564,0.1564,0.1602,0.1601,0.16,0.1599,0,0,0,0,0,0,0,0.1637,0.1634,0.16,0.1617,0.1618,0.1625,0.1625,0.16,0.1608,0.1623,0.1625,0.1624,0.1611,0.1605,0.1602,0.1563,0.1602,0.16,0.1599,0.1598,0.149,0.1488,0,0,0,0,0,0,0.1637,0.1635,0.16,0.1599,0.1632,0.1623,0.1622,0.1613,0.1608,0.1609,0.1622,0.1625,0.1607,0.1605,0.1602,0.1551,0.16,0.1598,0.1597,0.1491,0.1489,0.1488,0,0,0,0,0,0,0.1638,0.1633,0.1601,0.1618,0.1614,0.1621,0.161,0.1612,0.1605,0.1608,0.1609,0.1615,0.1608,0.1605,0.1575,0.1551,0.1597,0.1595,0.1493,0.1491,0.1489,0.145,0,0,0,0,0,0,0.1639,0.1634,0.1618,0.1617,0.1613,0.1574,0.1608,0.161,0.1602,0.1606,0.1601,0.1601,0.1609,0.1577,0.1572,0.1549,0.1593,0.1495,0.1492,0.1489,0.1453,0.1446,0.144,0,0,0,0,0,0.1641,0.1606,0.1617,0.1612,0.1594,0.1573,0.157,0.1581,0.16,0.1584,0.1586,0.1602,0.1555,0.1574,0.1569,0.1544,0.1497,0.1493,0.149,0.1456,0.1447,0.144,0,0,0,0,0,0,0.1602,0.1606,0.1618,0.1582,0.1577,0.1578,0.1558,0.1572,0.156,0.1564,0.1577,0.1575,0.1542,0.1541,0.1562,0.1503,0.1529,0.1524,0.1505,0.1497,0.1491,0.1492,0.1592,0,0,0,0,0,0.1589,0.1573,0.1577,0.1546,0.1543,0.1551,0.1542,0.1551,0.1546,0.1543,0.1543,0.1536,0.152,0.1508,0.1494,0.1453,0.1453,0.1434,0.1428,0.1423,0.1418,0.1397,0.1389,0.1476,0.1476,0.1476,0,0,0.1563,0.1563,0.1552,0.1538,0.1535,0.1517,0.1548,0.1528,0.1515,0.1539,0.1511,0.1511,0.1504,0.1469,0.1453,0.1466,0.1394,0.1418,0.1414,0.1412,0.1392,0.1384,0.1377,0.1473,0.1474,0.1474,0,0,0.1505,0.1504,0.1478,0.1475,0.1471,0.1477,0.1471,0.147,0.1471,0.1444,0.1462,0.1446,0.1418,0.1413,0.1406,0.1349,0.1363,0.1344,0.131,0.129,0.1283,0.1277,0.1256,0.1249,0.1339,0.1339,0.1339,0,0.1472,0.1447,0.1462,0.1441,0.1434,0.1459,0.1432,0.1428,0.1418,0.1413,0.1428,0.1394,0.1391,0.1355,0.1342,0.1336,0.1328,0.1344,0.1283,0.1277,0.1272,0.1252,0.1244,0.1337,0.1337,0.1337,0.1338,0,0.1407,0.139,0.1369,0.1361,0.1352,0.1328,0.1339,0.1328,0.1339,0.1343,0.1315,0.1312,0.1298,0.129,0.1299,0.1256,0.1264,0.1281,0.1307,0.1261,0.1243,0.1235,0.1334,0.1334,0.1335,0.1336,0,0,0.1323,0.1326,0.1318,0.1315,0.1313,0.1299,0.1277,0.1265,0.1255,0.1248,0.1229,0.1206,0.1222,0.1214,0.1224,0.1206,0.1161,0.1225,0.1225,0.1213,0.1113,0.1099,0.109,0.1171,0.1169,0.1168,0.1113,0,0.1266,0.1229,0.1243,0.1204,0.1188,0.1211,0.1192,0.1188,0.1192,0.1178,0.1182,0.1165,0.1188,0.1184,0.1167,0.117,0.1141,0.1174,0.1152,0.1151,0.1152,0.1081,0.1067,0.1014,0.1106,0.1105,0.1104,0,0.1195,0.1187,0.1147,0.1149,0.1143,0.1125,0.1116,0.1103,0.1099,0.1103,0.1096,0.111,0.1087,0.1115,0.1083,0.1106,0.1098,0.1098,0.1096,0.1094,0.1124,0.1076,0.0998,0.099,0.1093,0.1094,0.1095,0,0.1137,0.1117,0.109,0.1087,0.1089,0.1076,0.1076,0.1075,0.1067,0.1058,0.1053,0.1042,0.1035,0.1025,0.1035,0.1054,0.1002,0.1031,0.1004,0.1004,0.0991,0.0991,0.091,0.0987,0.0987,0.0987,0.0988,0,0.1072,0.1046,0.1065,0.1048,0.1021,0.1037,0.1009,0.1011,0.101,0.0994,0.1014,0.0998,0.1012,0.0998,0.1006,0.0979,0.0975,0.0977,0.0979,0.0975,0.0975,0.0969,0.0973,0.0985,0.0986,0.0986,0.0987,0,0.1002,0.1013,0.0986,0.0991,0.0992,0.0971,0.0975,0.096,0.0966,0.0946,0.0942,0.0951,0.0936,0.0945,0.0928,0.0934,0.0898,0.0906,0.09,0.0901,0.0874,0.0877,0.0786,0.0775,0.086,0.0859,0.0858,0,0.0959,0.094,0.0944,0.0936,0.0935,0.0921,0.0914,0.093,0.0921,0.0917,0.0902,0.0888,0.0878,0.0852,0.0856,0.0844,0.0851,0.082,0.0849,0.0845,0.085,0.085,0.0848,0.0813,0.0812,0.0812,0.0811,0,0.0882,0.0889,0.0879,0.087,0.0862,0.0856,0.0851,0.0843,0.0859,0.0848,0.0833,0.0826,0.081,0.0796,0.0786,0.0785,0.08,0.0802,0.0795,0.079,0.0787,0.0788,0.0883,0.0804,0.0804,0.0805,0.0805,0.0806,0.0824,0.0809,0.0809,0.0797,0.0796,0.0792,0.0778,0.0784,0.0772,0.0762,0.0772,0.0754,0.0752,0.074,0.0738,0.0723,0.0736,0.0726,0.0723,0.072,0.0716,0.0791,0.0721,0.0722,0.0722,0.0722,0.0722,0,0.0747,0.075,0.0739,0.0733,0.0723,0.0741,0.0737,0.0728,0.0712,0.071,0.07,0.0684,0.0671,0.0675,0.0663,0.0651,0.0658,0.0647,0.0648,0.0647,0.0706,0.0713,0.0642,0.0642,0.0642,0.0642,0.0642,0.0642,0.0706,0.0682,0.0689,0.0664,0.0667,0.0651,0.0647,0.0643,0.0642,0.0622,0.0613,0.0616,0.0617,0.0605,0.0594,0.0596,0.059,0.0577,0.0581,0.0635,0.0643,0.0651,0.0657,0.0576,0.0576,0.0524,0.0523,0.0523]}]]